| time (UTC) | temp C | wind direction | speed KPH | gust KPH | rain 1hr cm | rain 24hr cm | rain mn cm | humidity % | barometer mb |
| 20260903182633 | 23 | 196 | 0.0 | 9.7 | 0.00 | 0.00 | 0.00 | 60 | 1012.1 |
| 20260903181635 | 23 | 196 | 0.0 | 9.7 | 0.00 | 0.00 | 0.00 | 60 | 1012.1 |
| 20260903180633 | 23 | 174 | 0.0 | 8.0 | 0.00 | 0.00 | 0.00 | 60 | 1012.3 |
| 20260903175633 | 23 | 174 | 0.0 | 8.0 | 0.00 | 0.00 | 0.00 | 60 | 1012.3 |
| 20260903174639 | 23 | 217 | 0.0 | 8.0 | 0.00 | 0.15 | 0.00 | 62 | 1012.3 |
| 20260903173634 | 23 | 217 | 0.0 | 8.0 | 0.00 | 0.15 | 0.00 | 62 | 1012.3 |
| 20260903172633 | 23 | 94 | 0.0 | 9.7 | 0.00 | 0.15 | 0.00 | 62 | 1012.4 |
| 20260903171634 | 23 | 94 | 0.0 | 9.7 | 0.00 | 0.15 | 0.00 | 62 | 1012.4 |
| 20260903170637 | 23 | 40 | 0.0 | 8.0 | 0.00 | 0.15 | 0.00 | 63 | 1012.4 |
| 20260903165640 | 22 | 34 | 0.0 | 9.7 | 0.00 | 0.15 | 0.00 | 65 | 1012.4 |
| 20260903164636 | 22 | 34 | 0.0 | 9.7 | 0.00 | 0.15 | 0.00 | 65 | 1012.4 |
| 20260903163636 | 22 | 76 | 0.0 | 8.0 | 0.00 | 0.15 | 0.00 | 65 | 1012.7 |
| 20260903162634 | 22 | 76 | 0.0 | 8.0 | 0.00 | 0.15 | 0.00 | 65 | 1012.7 |
| 20260903161634 | 22 | 102 | 0.0 | 4.8 | 0.00 | 0.15 | 0.00 | 67 | 1012.9 |
| 20260903160637 | 22 | 102 | 0.0 | 4.8 | 0.00 | 0.15 | 0.00 | 67 | 1012.9 |
| 20260903155635 | 21 | 271 | 0.0 | 6.4 | 0.00 | 0.15 | 0.00 | 71 | 1013.1 |
| 20260903154636 | 21 | 271 | 0.0 | 6.4 | 0.00 | 0.15 | 0.00 | 71 | 1013.1 |
| 20260903153635 | 20 | 156 | 0.0 | 6.4 | 0.00 | 0.15 | 0.00 | 75 | 1013.1 |
| 20260903152636 | 20 | 156 | 0.0 | 6.4 | 0.00 | 0.15 | 0.00 | 75 | 1013.1 |
| 20260903145635 | 17 | 284 | 0.0 | 6.4 | 0.00 | 0.15 | 0.00 | 86 | 1013.4 |
| 20260903144636 | 17 | 284 | 0.0 | 6.4 | 0.00 | 0.15 | 0.00 | 86 | 1013.4 |
| 20260903143633 | 16 | 250 | 0.0 | 8.0 | 0.00 | 0.15 | 0.00 | 90 | 1013.5 |
| 20260903142635 | 16 | 250 | 0.0 | 8.0 | 0.00 | 0.15 | 0.00 | 90 | 1013.5 |
| 20260903141634 | 16 | 302 | 0.0 | 6.4 | 0.00 | 0.15 | 0.00 | 97 | 1013.5 |
| 20260903140634 | 16 | 302 | 0.0 | 6.4 | 0.00 | 0.15 | 0.00 | 97 | 1013.5 |
| 20260903135638 | 15 | 234 | 0.0 | 1.6 | 0.00 | 0.15 | 0.00 | 97 | 1013.6 |
| 20260903120639 | 11 | 193 | 0.0 | 0.0 | 0.00 | 0.15 | 0.00 | 96 | 1013.0 |
| 20260903115635 | 11 | 193 | 0.0 | 0.0 | 0.00 | 0.15 | 0.00 | 96 | 1013.0 |
| 20260903044637 | 14 | 194 | 0.0 | 0.0 | 0.00 | 0.15 | 0.15 | 90 | 1012.9 |
| 20260903043647 | 14 | 194 | 0.0 | 0.0 | 0.00 | 0.15 | 0.15 | 90 | 1012.9 |
| 20260903042638 | 14 | 194 | 0.0 | 1.6 | 0.00 | 0.15 | 0.15 | 90 | 1012.7 |
| 20260903041637 | 15 | 194 | 0.0 | 0.0 | 0.00 | 0.15 | 0.15 | 89 | 1012.6 |
| 20260903040638 | 15 | 194 | 0.0 | 0.0 | 0.00 | 0.15 | 0.15 | 89 | 1012.6 |
| 20260903035638 | 15 | 194 | 0.0 | 0.0 | 0.00 | 0.15 | 0.15 | 89 | 1012.6 |
| 20260903034638 | 15 | 194 | 0.0 | 0.0 | 0.00 | 0.15 | 0.15 | 89 | 1012.6 |
| 20260903033637 | 15 | 194 | 0.0 | 0.0 | 0.00 | 0.15 | 0.15 | 88 | 1012.5 |
| 20260903032638 | 15 | 194 | 0.0 | 0.0 | 0.00 | 0.15 | 0.15 | 88 | 1012.5 |
| 20260903031637 | 15 | 194 | 0.0 | 0.0 | 0.00 | 0.15 | 0.15 | 87 | 1012.4 |
| 20260903030642 | 15 | 194 | 0.0 | 0.0 | 0.00 | 0.15 | 0.15 | 87 | 1012.4 |
| 20260903025638 | 15 | 194 | 0.0 | 0.0 | 0.00 | 0.15 | 0.15 | 87 | 1012.4 |
| 20260903024639 | 15 | 194 | 0.0 | 0.0 | 0.00 | 0.15 | 0.15 | 87 | 1012.4 |
| 20260903023638 | 15 | 194 | 0.0 | 0.0 | 0.00 | 0.15 | 0.15 | 86 | 1012.3 |
| 20260903022638 | 15 | 194 | 0.0 | 0.0 | 0.00 | 0.15 | 0.15 | 86 | 1012.3 |
| 20260903021638 | 16 | 194 | 0.0 | 0.0 | 0.00 | 0.15 | 0.15 | 85 | 1012.2 |
| 20260903020638 | 16 | 194 | 0.0 | 0.0 | 0.00 | 0.15 | 0.15 | 85 | 1012.2 |
| 20260903015639 | 16 | 194 | 0.0 | 0.0 | 0.00 | 0.15 | 0.15 | 85 | 1012.1 |
| 20260903014639 | 16 | 194 | 0.0 | 0.0 | 0.00 | 0.15 | 0.15 | 85 | 1012.1 |
| 20260903013638 | 16 | 194 | 0.0 | 0.0 | 0.00 | 0.15 | 0.15 | 82 | 1011.9 |
| 20260903012638 | 16 | 194 | 0.0 | 0.0 | 0.00 | 0.15 | 0.15 | 82 | 1011.9 |
| 20260903011638 | 17 | 194 | 0.0 | 0.0 | 0.00 | 0.15 | 0.15 | 79 | 1011.7 |
| 20260903010639 | 17 | 194 | 0.0 | 0.0 | 0.00 | 0.15 | 0.15 | 79 | 1011.7 |
| 20260903005638 | 18 | 194 | 0.0 | 0.0 | 0.00 | 0.15 | 0.15 | 76 | 1011.5 |
| 20260903002639 | 22 | 194 | 0.0 | 0.0 | 0.00 | 0.15 | 0.15 | 64 | 1011.5 |
| 20260903001638 | 22 | 194 | 0.0 | 0.0 | 0.00 | 0.15 | 0.15 | 64 | 1011.5 |
| 20260903000640 | 22 | 194 | 0.0 | 1.6 | 0.00 | 0.15 | 0.15 | 59 | 1011.4 |
| 20260902235639 | 22 | 194 | 0.0 | 1.6 | 0.00 | 0.15 | 0.15 | 59 | 1011.4 |
| 20260902234639 | 23 | 193 | 0.0 | 3.2 | 0.00 | 0.15 | 0.15 | 55 | 1011.3 |
| 20260902233639 | 23 | 193 | 0.0 | 3.2 | 0.00 | 0.15 | 0.15 | 55 | 1011.3 |
| 20260902232640 | 24 | 227 | 0.0 | 4.8 | 0.00 | 0.15 | 0.15 | 53 | 1011.2 |
| 20260902231640 | 24 | 227 | 0.0 | 4.8 | 0.00 | 0.15 | 0.15 | 53 | 1011.2 |
| 20260902230640 | 25 | 331 | 0.0 | 8.0 | 0.00 | 0.15 | 0.15 | 51 | 1011.3 |
| 20260902225639 | 25 | 331 | 0.0 | 8.0 | 0.00 | 0.15 | 0.15 | 51 | 1011.3 |
| 20260902224639 | 25 | 238 | 3.2 | 8.0 | 0.00 | 0.15 | 0.15 | 49 | 1011.3 |
| 20260902223639 | 25 | 238 | 3.2 | 8.0 | 0.00 | 0.15 | 0.15 | 49 | 1011.3 |
| 20260902222639 | 25 | 220 | 6.4 | 11.3 | 0.00 | 0.15 | 0.15 | 49 | 1011.2 |
| 20260902221639 | 25 | 220 | 6.4 | 11.3 | 0.00 | 0.15 | 0.15 | 49 | 1011.2 |
| 20260902220640 | 26 | 304 | 4.8 | 8.0 | 0.00 | 0.15 | 0.15 | 46 | 1011.1 |
| 20260902215641 | 26 | 304 | 4.8 | 8.0 | 0.00 | 0.15 | 0.15 | 46 | 1011.1 |
| 20260902214650 | 26 | 342 | 3.2 | 12.9 | 0.00 | 0.15 | 0.15 | 46 | 1011.1 |
| 20260902212640 | 26 | 225 | 1.6 | 12.9 | 0.00 | 0.15 | 0.15 | 49 | 1011.2 |
| 20260902211641 | 26 | 98 | 1.6 | 8.0 | 0.00 | 0.15 | 0.15 | 47 | 1011.0 |
| 20260902210640 | 26 | 98 | 1.6 | 8.0 | 0.00 | 0.15 | 0.15 | 47 | 1011.0 |
| 20260902205641 | 26 | 193 | 0.0 | 11.3 | 0.00 | 0.15 | 0.15 | 50 | 1011.2 |
| 20260902204640 | 26 | 193 | 0.0 | 11.3 | 0.00 | 0.15 | 0.15 | 50 | 1011.2 |
| 20260902203644 | 25 | 86 | 1.6 | 12.9 | 0.00 | 0.15 | 0.15 | 50 | 1011.3 |
| 20260902202640 | 25 | 86 | 1.6 | 12.9 | 0.00 | 0.15 | 0.15 | 50 | 1011.3 |
| 20260902201640 | 25 | 86 | 0.0 | 9.7 | 0.00 | 0.15 | 0.15 | 51 | 1011.5 |
| 20260902200640 | 25 | 86 | 0.0 | 9.7 | 0.00 | 0.15 | 0.15 | 51 | 1011.5 |
| 20260902195640 | 25 | 217 | 1.6 | 12.9 | 0.00 | 0.15 | 0.15 | 51 | 1011.4 |
| 20260902194641 | 25 | 217 | 1.6 | 12.9 | 0.00 | 0.15 | 0.15 | 51 | 1011.4 |
| 20260902193641 | 25 | 220 | 6.4 | 11.3 | 0.00 | 0.15 | 0.15 | 51 | 1011.5 |
| 20260902192641 | 25 | 220 | 6.4 | 11.3 | 0.00 | 0.15 | 0.15 | 51 | 1011.5 |
| 20260902191641 | 25 | 220 | 1.6 | 12.9 | 0.00 | 0.15 | 0.15 | 50 | 1011.6 |
| 20260902190641 | 25 | 220 | 1.6 | 12.9 | 0.00 | 0.15 | 0.15 | 50 | 1011.6 |
| 20260902185641 | 25 | 39 | 1.6 | 11.3 | 0.00 | 0.15 | 0.15 | 51 | 1011.8 |
| 20260902184641 | 25 | 39 | 1.6 | 11.3 | 0.00 | 0.15 | 0.15 | 51 | 1011.8 |
| 20260902183641 | 25 | 213 | 0.0 | 14.5 | 0.15 | 0.15 | 0.15 | 54 | 1011.8 |